MAYA-2

Last updated on Thu Jul 07 2022 00:02:05 GMT+0000 (Coordinated Universal Time)

1 47929U 98067SF 22187.50330417 .06258577 12351-4 62901-3 0 9991 2 47929 51.6123 198.3492 0003382 301.7247 58.3448 16.37241531 74823

Satellite not in orbit